Flag for Australia Weather past 2 weeks in Cairns, Queensland, Australia

Now
86 °F

Passing clouds.


Feels Like: 89 °F
Forecast: 68 / 90 °F
Wind: 9 mph from North

Location: Cairns Airport

Current Time: Dec 18, 2014 at 10:48:12 AM

Latest Report: Dec 18, 2014 at 10:00 AM


Visibility: N/A

Pressure: 29.89 "Hg

Humidity: 55%

Dew point: 68 °F

Location of CairnsLocation

Historic Weather in Cairns — Graph

°F

Cairns temperature yesterday

Maximum temperature yesterday: 88 °F (at 10:00 AM)
Minimum temperature yesterday: 75 °F (at 5:00 AM)
Average temperature yesterday: 83 °F

Past Weeks' High & Low Weather Summary

 TemperatureHumidityPressure
High93 °F (Dec 13, 1:00 PM)100% (Dec 6, 7:52 PM)29.95 "Hg (Dec 6, 7:52 PM)
Low70 °F (Dec 5, 3:00 AM)38% (Dec 3, 12:00 PM)29.56 "Hg (Dec 13, 3:30 PM)
Average82 °F74%29.79 "Hg
* Reported Dec 3 9:00 AM — Dec 18 9:00 AM, Cairns, Weather by CustomWeather, © 2014

Note: Actual official high and low records may vary slightly from our data, if they occured in-between our weather recording intervals... More about our weather records

Advertising

Cairns weather history for previous 24 hours

 ConditionsComfort  
Time TempWeatherWind HumidityBarometerVisibility
9:00 AM
Dec 18
84 °FPassing clouds.9 mph58%29.89 "HgN/A
8:00 AM82 °FPassing clouds.5 mph70%29.89 "HgN/A
7:00 AM77 °FPassing clouds.No wind89%29.89 "HgN/A
6:00 AM73 °FPassing clouds.No wind94%29.86 "HgN/A
5:00 AM73 °FPassing clouds.No wind94%29.83 "HgN/A
4:30 AM73 °FPassing clouds.No wind94%29.83 "HgN/A
4:00 AM73 °FPassing clouds.5 mph94%29.80 "HgN/A
3:30 AM73 °FPassing clouds.No wind94%29.80 "HgN/A
3:00 AM75 °FPassing clouds.No wind89%29.80 "HgN/A
2:30 AM75 °FPassing clouds.3 mph89%29.80 "HgN/A
2:00 AM75 °FPassing clouds.3 mph89%29.80 "HgN/A
1:30 AM75 °FPassing clouds.3 mph89%29.80 "HgN/A
1:00 AM77 °FPassing clouds.5 mph89%29.80 "HgN/A
12:30 AM77 °FPassing clouds.5 mph89%29.83 "HgN/A
12:00 AM77 °FPassing clouds.No wind83%29.83 "HgN/A
11:00 PM
Dec 17
79 °FPassing clouds.3 mph79%29.83 "HgN/A
10:00 PM79 °FPassing clouds.3 mph79%29.83 "HgN/A
9:30 PM81 °FPassing clouds.3 mph74%29.83 "HgN/A
9:00 PM82 °FPassing clouds.5 mph70%29.80 "HgN/A
8:30 PM82 °FPassing clouds.6 mph70%29.77 "HgN/A
8:00 PM82 °FPassing clouds.6 mph70%29.77 "HgN/A
7:30 PM82 °FScattered clouds.6 mph70%29.77 "HgN/A
7:00 PM82 °FScattered clouds.6 mph70%29.77 "HgN/A
6:30 PM82 °FScattered clouds.6 mph70%29.77 "HgN/A
6:00 PM84 °FPassing clouds.8 mph66%29.74 "HgN/A
5:30 PM84 °FPassing clouds.8 mph66%29.74 "HgN/A
5:00 PM84 °FPassing clouds.8 mph66%29.74 "HgN/A
4:30 PM86 °FPassing clouds.10 mph62%29.74 "HgN/A
4:00 PM88 °FPassing clouds.10 mph59%29.74 "HgN/A
3:30 PM88 °FPassing clouds.10 mph59%29.74 "HgN/A
3:00 PM88 °FPassing clouds.10 mph55%29.74 "HgN/A
2:30 PM86 °FPassing clouds.10 mph62%29.74 "HgN/A
2:00 PM88 °FPassing clouds.10 mph59%29.77 "HgN/A
1:30 PM88 °FPassing clouds.10 mph59%29.77 "HgN/A
1:00 PM88 °FPassing clouds.10 mph59%29.77 "HgN/A
12:30 PM88 °FPassing clouds.10 mph59%29.80 "HgN/A
12:00 PM88 °FPassing clouds.10 mph59%29.80 "HgN/A
11:30 AM88 °FPassing clouds.9 mph59%29.80 "HgN/A
11:00 AM86 °FPassing clouds.10 mph62%29.83 "HgN/A
10:30 AM86 °FPassing clouds.9 mph62%29.83 "HgN/A
10:00 AM88 °FPassing clouds.8 mph55%29.83 "HgN/A
Weather by CustomWeather, © 2014

See weather overviewHow to use our weather pages